Weather Roundup
Issued by NWS Chicago, IL

Home | Current Version | Previous Version | Text Only | Print | Product List | Glossary On
Versions: 1 2 3 4 5 6 7 8 9 10 11 12 13 14 15 16 17 18 19 20 21 22 23 24 25 26 27 28 29 30 31 32 33 34 35 36 37 38 39 40 41 42 43 44 45 46 47 48 49 50
000
NZUS59 KLOT 231708
HRRLOT

CHICAGO AREA WEATHER ROUNDUP
NATIONAL WEATHER SERVICE CHICAGO/ROMEOVILLE IL
1100 AM CST FRI FEB 23 2018

NOTE: "FAIR" INDICATES FEW OR NO CLOUDS BELOW 12,000 FEET WITH NO
SIGNIFICANT WEATHER AND/OR OBSTRUCTIONS TO VISIBILITY.

* THESE STATIONS ARE NOT UNDER NWS QUALITY CONTROL. THEY ALSO MAY NOT
  REPORT WEATHER SUCH AS PRECIPITATION OR FOG.

ILZ005-006-012>014-019>023-231800-
NORTHEAST ILLINOIS

CITY           SKY/WX    TMP DP  RH WIND       PRES   REMARKS
OHARE          CLOUDY    41  37  86 W14G23    30.15R
MIDWAY         CLOUDY    43  40  89 W17G23    30.16R
AURORA         CLOUDY    38  36  92 W17G25    30.18R
LANSING*       CLOUDY    44  42  96 W16G24    30.16R
JOLIET*        CLOUDY    41  39  92 W12G20    30.19R
WAUKEGAN       CLOUDY    40  38  93 W9G20     30.11R
DUPAGE AIRPORT CLOUDY    38  37  97 W18       30.16R
WHEELING       CLOUDY    42  38  85 W16G24    30.15R
KANKAKEE*      CLOUDY    42  42  98 W21G28    30.21R
MORRIS*        CLOUDY    39  37  92 W16       30.19R
LEWIS AIRPORT* CLOUDY    40  38  92 W20       30.17R
NORTHERLY ISL    N/A     42  39  89 W17         N/A
$$

WIZ051-052-058>065-066-070>072-231800-
SOUTHEAST WISCONSIN

CITY           SKY/WX    TMP DP  RH WIND       PRES   REMARKS
MILWAUKEE      CLOUDY    41  37  86 W16G25    30.10R
KENOSHA*       CLOUDY    40  37  89 W16G28    30.12R
RACINE*        CLOUDY    40  38  93 W18G29    30.12R
BURLINGTON     CLOUDY    37  34  90 W14G21    30.13R
WAUKESHA       CLOUDY    36  36 100 W18       30.11R
WEST BEND      CLOUDY    36  36 100 W17       30.08R
$$

INZ001>003-010>013-019-020-231800-
NORTHWEST INDIANA

CITY           SKY/WX    TMP DP  RH WIND       PRES   REMARKS
GARY*          CLOUDY    46  43  87 W17G33    30.16R
MICHIGAN CITY* NOT AVBL
RENSSELAER*    NOT AVBL
VALPARAISO     CLOUDY    47  44  90 W15G24    30.16R
$$

LMZ740>746-231800-
SOUTHERN LAKE MICHIGAN

STATION/POSITION TIME  SKY/WX   TEMP WIND        PRES    VSBY
                                AIR  DIR/SP/G
                 (UTC)          (F)  (DEG/KT/KT) (MB)    (MI)
HARRISON CRIB    1640            43  270/ 17/ 24   N/A
BURNHAM HARBOR   1700            42  210/ 11/ 15   N/A
CALUMET HARBOR   1648            43  250/ 14/ 20 1020.4R
BURNS HARBOR     1640            42  250/ 18/ 20 1021.3R
MICHIGAN CITY    1640            41  230/ 19/ 20   N/A
$$

ABBREVIATIONS USED IN REMARKS
   TC - TEMPERATURE IN CELSIUS
  WCI - WIND CHILL INDEX
   HX - HEAT INDEX
  VSB - VISIBILITY
$$



USA.gov is the U.S. government's official web portal to all federal, state and local government web resources and services.